EW3302 Weather Reports


Display with metric or nautical units.
time (UTC)temp
F
wind
direction
speed
MPH
gust
MPH
rain 1hr
in
rain 24hr
in
rain mn
in
humidity
%
barometer
mb
20260507074517 48 248 2.0 4.0 0.00 0.00 0.00 52 1014.4
20260507073517 48 338 1.0 4.0 0.00 0.00 0.00 52 1014.4
20260507072516 48 248 2.0 4.0 0.00 0.00 0.00 52 1014.4
20260507071517 48 293 2.0 4.0 0.00 0.00 0.00 51 1014.3
20260507070516 48 315 2.0 5.0 0.00 0.00 0.00 54 1014.2
20260507065537 47 293 2.0 6.0 0.00 0.00 0.00 55 1014.3
20260507064517 47 293 2.0 4.0 0.00 0.00 0.00 56 1014.2
20260507063516 46 315 2.0 4.0 0.00 0.00 0.00 58 1014.1
20260507062556 45 338 1.0 3.0 0.00 0.00 0.00 57 1014.1
20260507061516 44 270 1.0 3.0 0.00 0.00 0.00 58 1013.9
20260507060516 42 270 2.0 3.0 0.00 0.00 0.00 64 1013.8
20260507055517 41 338 3.0 5.0 0.00 0.00 0.00 65 1013.7
20260507054517 41 315 2.0 4.0 0.00 0.00 0.00 66 1013.7
20260507053516 40 293 1.0 3.0 0.00 0.00 0.00 69 1013.6
20260507052516 39 315 3.0 5.0 0.00 0.00 0.00 69 1013.6
20260507051517 39 293 3.0 6.0 0.00 0.00 0.00 70 1013.5
20260507050516 38 338 2.0 6.0 0.00 0.00 0.00 70 1013.5
20260507045516 38 293 2.0 6.0 0.00 0.00 0.00 71 1013.4
20260507044516 37 315 3.0 7.0 0.00 0.00 0.00 73 1013.3
20260507043516 36 293 2.0 4.0 0.00 0.00 0.00 74 1013.2
20260507042516 36 315 2.0 6.0 0.00 0.00 0.00 75 1013.3
20260507041516 36 293 2.0 5.0 0.00 0.00 0.00 77 1013.2
20260507040516 35 293 2.0 4.0 0.00 0.00 0.00 79 1013.1
20260507035516 34 293 2.0 3.0 0.00 0.00 0.00 81 1013.1
20260507034516 34 293 2.0 3.0 0.00 0.00 0.00 80 1012.9
20260507033516 34 293 1.0 3.0 0.00 0.00 0.00 79 1012.9
20260507032516 34 0.0 2.0 0.00 0.00 0.00 79 1012.8
20260507031516 34 293 1.0 2.0 0.00 0.00 0.00 78 1012.7
20260507030516 34 0.0 0.0 0.00 0.00 0.00 77 1012.6
20260507025516 34 293 1.0 1.0 0.00 0.00 0.00 77 1012.7
20260507024536 34 293 1.0 3.0 0.00 0.00 0.00 77 1012.6
20260507023516 35 293 1.0 3.0 0.00 0.00 0.00 76 1012.5
20260507022516 35 293 1.0 2.0 0.00 0.00 0.00 74 1012.6
20260507021517 35 293 1.0 2.0 0.00 0.00 0.00 74 1012.6
20260507020536 36 0.0 1.0 0.00 0.00 0.00 73 1012.5
20260507015516 36 293 1.0 2.0 0.00 0.00 0.00 73 1012.4
20260507014516 36 293 2.0 3.0 0.00 0.00 0.00 74 1012.5
20260507013516 36 0.0 1.0 0.00 0.00 0.00 73 1012.5
20260507012516 36 0.0 2.0 0.00 0.00 0.00 73 1012.5
20260507011536 35 0.0 1.0 0.00 0.00 0.00 73 1012.4
20260507010516 35 0.0 0.0 0.00 0.00 0.00 73 1012.3
20260507005516 35 180 1.0 2.0 0.00 0.00 0.00 74 1012.0
20260507004516 35 180 1.0 2.0 0.00 0.00 0.00 72 1012.1
20260507003536 35 180 1.0 2.0 0.00 0.00 0.00 73 1012.0
20260507002516 34 180 1.0 2.0 0.00 0.00 0.00 72 1012.0
20260507001516 34 0.0 1.0 0.00 0.00 0.00 72 1012.0
20260507000536 34 180 1.0 2.0 0.00 0.00 0.00 71 1012.0
20260506235516 34 0.0 1.0 0.00 0.00 0.00 70 1011.9
20260506234516 35 0.0 1.0 0.00 0.00 0.00 68 1011.9
20260506233516 36 158 1.0 2.0 0.00 0.00 0.00 67 1011.9
20260506232516 36 0.0 1.0 0.00 0.00 0.00 66 1011.8
20260506231516 37 158 1.0 2.0 0.00 0.00 0.00 64 1011.7
20260506230516 38 158 1.0 2.0 0.00 0.00 0.00 62 1011.9
20260506225516 39 158 1.0 2.0 0.00 0.00 0.00 61 1011.9
20260506224536 40 158 1.0 2.0 0.00 0.00 0.00 59 1012.0
20260506223516 40 293 1.0 5.0 0.00 0.00 0.00 59 1011.9
20260506222536 40 293 2.0 3.0 0.00 0.00 0.00 57 1011.9
20260506221516 41 315 1.0 3.0 0.00 0.00 0.00 57 1011.8
20260506220516 41 315 1.0 2.0 0.00 0.00 0.00 55 1011.7
20260506215515 40 225 2.0 6.0 0.00 0.00 0.00 55 1011.7
20260506214516 39 23 1.0 4.0 0.00 0.00 0.00 58 1011.7
20260506213515 38 0.0 1.0 0.00 0.00 0.00 65 1011.1
20260506212515 38 0.0 0.0 0.00 0.00 0.00 64 1010.9
20260506211535 38 315 1.0 2.0 0.00 0.00 0.00 64 1010.8
20260506210515 38 0.0 1.0 0.00 0.00 0.00 64 1010.8
20260506205515 38 0.0 1.0 0.00 0.00 0.00 63 1010.7
20260506204515 38 0.0 0.0 0.00 0.00 0.00 62 1010.8
20260506203518 38 0.0 0.0 0.00 0.00 0.00 60 1010.7
20260506202517 39 0.0 2.0 0.00 0.00 0.00 59 1010.6
20260506201517 39 0.0 1.0 0.00 0.00 0.00 56 1010.6
20260506200517 39 0.0 0.0 0.00 0.00 0.00 55 1010.5
20260506195517 39 0.0 1.0 0.00 0.00 0.00 53 1010.6
20260506194517 39 0.0 0.0 0.00 0.00 0.00 53 1010.5
20260506193517 40 315 1.0 3.0 0.00 0.00 0.00 51 1010.5
20260506192517 41 0.0 0.0 0.00 0.00 0.00 48 1010.5
20260506191517 42 0.0 0.0 0.00 0.00 0.00 47 1010.5
20260506190517 43 0.0 2.0 0.00 0.00 0.00 46 1010.5
20260506185517 44 0.0 1.0 0.00 0.00 0.00 42 1010.4
20260506184517 44 203 1.0 2.0 0.00 0.00 0.00 40 1010.3
20260506183517 45 203 1.0 3.0 0.00 0.00 0.00 39 1010.4
20260506182517 46 203 1.0 2.0 0.00 0.00 0.00 37 1010.3
20260506181517 47 203 1.0 2.0 0.00 0.00 0.00 36 1010.2
20260506180517 48 225 1.0 3.0 0.00 0.00 0.00 36 1010.2
20260506175517 49 225 1.0 2.0 0.00 0.00 0.00 34 1010.1
20260506174517 49 203 2.0 4.0 0.00 0.00 0.00 33 1010.1
20260506173517 50 203 2.0 4.0 0.00 0.00 0.00 32 1010.1
20260506172517 50 203 2.0 5.0 0.00 0.00 0.00 32 1010.1
20260506171517 51 225 3.0 7.0 0.00 0.00 0.00 31 1010.1
20260506170517 51 225 4.0 7.0 0.00 0.00 0.00 30 1010.1
20260506165517 52 180 5.0 10.0 0.00 0.00 0.00 29 1010.0
20260506164517 52 225 3.0 6.0 0.00 0.00 0.00 32 1010.0
20260506163537 53 203 3.0 9.0 0.00 0.00 0.00 31 1010.1
20260506162517 53 203 6.0 12.0 0.00 0.00 0.00 29 1010.1
20260506161517 54 203 7.0 13.0 0.00 0.00 0.00 28 1010.1
20260506160517 54 203 6.0 11.0 0.00 0.00 0.00 29 1010.1
20260506155517 54 225 6.0 13.0 0.00 0.00 0.00 29 1010.2
20260506154537 54 225 4.0 8.0 0.00 0.00 0.00 30 1010.1
20260506153517 54 225 6.0 12.0 0.00 0.00 0.00 30 1010.1
20260506152537 54 203 7.0 14.0 0.00 0.00 0.00 29 1010.2
20260506151517 53 225 3.0 11.0 0.00 0.00 0.00 31 1010.1
20260506150517 53 180 5.0 11.0 0.00 0.00 0.00 32 1010.2
20260506145517 54 203 4.0 7.0 0.00 0.00 0.00 33 1010.3
20260506144517 53 180 6.0 12.0 0.00 0.00 0.00 31 1010.4
20260506143517 53 203 5.0 12.0 0.00 0.00 0.00 33 1010.5
20260506142517 52 180 3.0 7.0 0.00 0.00 0.00 31 1010.5
20260506141517 53 180 6.0 10.0 0.00 0.00 0.00 31 1010.6
20260506140517 53 203 6.0 10.0 0.00 0.00 0.00 30 1010.7
20260506135517 53 180 8.0 16.0 0.00 0.00 0.00 31 1010.7
20260506134517 53 225 4.0 8.0 0.00 0.00 0.00 31 1010.7
20260506133517 53 225 5.0 9.0 0.00 0.01 0.00 30 1010.7
20260506132517 53 113 4.0 7.0 0.00 0.01 0.00 32 1010.8
20260506131517 53 203 5.0 8.0 0.00 0.01 0.00 32 1010.9
20260506130517 53 203 5.0 9.0 0.00 0.01 0.00 32 1010.9
20260506125517 53 180 6.0 9.0 0.00 0.01 0.00 32 1010.9
20260506124537 53 180 7.0 12.0 0.00 0.01 0.00 31 1011.0
20260506123517 53 180 6.0 13.0 0.00 0.01 0.00 33 1011.0
20260506122517 53 248 2.0 5.0 0.00 0.01 0.00 33 1011.0
20260506121517 53 203 2.0 5.0 0.00 0.01 0.00 32 1011.1
20260506120517 53 180 4.0 7.0 0.00 0.01 0.00 32 1011.2
20260506115517 54 135 7.0 16.0 0.00 0.01 0.00 32 1011.2
20260506114537 53 203 4.0 7.0 0.00 0.01 0.00 35 1011.3
20260506113537 53 225 5.0 11.0 0.00 0.01 0.00 34 1011.4
20260506112537 51 248 4.0 10.0 0.00 0.01 0.00 34 1011.4
20260506111517 50 270 3.0 5.0 0.00 0.01 0.00 35 1011.5
20260506110517 51 225 4.0 7.0 0.00 0.01 0.00 34 1011.5
20260506105517 52 293 4.0 8.0 0.00 0.01 0.00 34 1011.6
20260506104537 51 203 5.0 9.0 0.00 0.01 0.00 36 1011.7
20260506103517 51 203 5.0 10.0 0.00 0.01 0.00 35 1011.8
20260506102517 51 203 8.0 14.0 0.00 0.01 0.00 35 1011.8
20260506101517 52 180 9.0 17.0 0.00 0.01 0.00 33 1011.7
20260506100517 51 203 5.0 11.0 0.00 0.01 0.00 38 1011.8
20260506095517 52 225 5.0 11.0 0.00 0.01 0.00 36 1011.9
20260506094537 52 180 8.0 16.0 0.00 0.01 0.00 36 1012.0
20260506093517 51 158 8.0 14.0 0.00 0.01 0.00 34 1011.9
20260506092537 53 158 7.0 12.0 0.00 0.01 0.00 34 1012.0
20260506091537 51 180 8.0 16.0 0.00 0.01 0.00 36 1012.1
20260506090517 51 135 5.0 10.0 0.00 0.01 0.00 39 1012.1
20260506085517 50 113 4.0 8.0 0.00 0.01 0.00 38 1012.2
20260506084517 49 180 4.0 7.0 0.00 0.01 0.00 43 1012.4
20260506083537 48 113 4.0 8.0 0.00 0.01 0.00 44 1012.4
20260506082517 48 113 5.0 8.0 0.00 0.01 0.00 46 1012.5
20260506081517 47 23 3.0 9.0 0.00 0.01 0.00 44 1012.6
20260506080517 46 135 3.0 7.0 0.00 0.01 0.00 46 1012.6